Погода METAR - Красноярск

Кемерово, Абакан, Красноярск, Новосибирск
Код METAR: UNKL 121200Z 34002MPS 300V010 CAVOK 22/10 Q1010 R29/CLRD65 NOSIG RMK QFE732

Погода - Сейчас

Время: 2022-08-12 19:00, местное
Направление ветра: Север-северо-запад (340°)
Скорость ветра: 2 м/с
Видимость:
Температура: 22°C
Точка росы: 10°C
Атмосферное давление: 1010 гПа

Архив погоды

Время, местное Направление Скорость, м/с Температура, °C Точка росы, °C Давление, гПа
2022-08-12 19:00 ССЗ (340°) 2 22 10 1010
2022-08-12 17:00 ССЗ (330°) 3 23 9 1010
2022-08-11 18:30 СЗ (320°) 3 26 14 1010
2022-08-11 17:00 ЮЮЗ (200°) 2 26 13 1010
2022-08-11 14:30 ЗЮЗ (240°) 2 26 13 1011
2022-08-10 19:30 СЗ (310°) 4 24 11 1009
2022-08-10 13:30 З (280°) 4 26 12 1009
2022-08-10 00:00 З (280°) 1 13 12 1010
2022-08-08 05:00 Переменный 1 8 8 1010
2022-08-06 11:00 СЗ (310°) 4 16 9 1015
2022-08-05 08:00 З (270°) 5 12 9 1013
2022-08-04 18:30 ЗЮЗ (260°) 7, порывы до 12 14 11 1013
2022-08-03 09:30 З (280°) 6 16 9 1012
2022-08-02 22:30 З (280°) 2 12 10 1010
2022-08-02 13:30 СЗ (310°) 5 16 9 1007
2022-08-01 06:30 Переменный 1 19 15 1002
2022-07-29 22:30 З (280°) 4 20 15 1001
2022-07-29 21:00 ЗСЗ (290°) 4 20 15 1001
2022-07-19 11:30 ЗЮЗ (240°) 5 16 12 1003
2022-07-18 00:00 Переменный 1 15 15 997
2022-07-15 22:00 З (270°) 1 12 10 1013
2022-07-15 18:00 СЗ (320°) 4 19 9 1013
2022-07-15 16:00 ССЗ (340°) 3 19 9 1013
2022-07-12 02:30 ЗСЗ (290°) 4 14 9 1012
2022-07-11 19:00 ССЗ (340°) 4 23 11 1009
2022-07-11 06:00 ЮЗ (210°) 3 18 17 1009
2022-07-07 08:30 Переменный 1 15 15 1005
2022-07-10 02:00 З (270°) 1 12 12 1011
2022-07-09 17:00 С (10°) 2 25 11 1010
2022-07-09 11:30 Переменный 1 22 12 1011
2022-07-07 21:00 ЗЮЗ (260°) 2 17 15 1008
2022-07-06 05:30 Штиль 0 13 13 999
2022-07-05 18:00 В (80°) 5 25 11 1001
2022-07-05 01:30 Штиль 0 10 10 1006
2022-07-03 23:30 ЮЗ (210°) 3 14 10 1006
2022-07-03 16:00 ЗЮЗ (240°) 5 20 10 1005
2022-07-02 01:30 З (280°) 4 15 10 1004
2022-06-30 05:00 Штиль 0 13 13 999
2022-06-29 11:30 В (100°) 4 22 12 1006
2022-06-28 05:30 ЮЮЗ (200°) 4 19 17 995
2022-06-28 01:00 ВЮВ (110°) 3 18 18 995
2022-06-27 23:30 ЮВ (120°) 3 17 17 997
2022-06-27 04:00 Переменный 1 18 17 997
2022-06-26 15:30 ЮЮВ (160°) 2 28 17 1002
2022-06-26 03:00 ЮЗ (230°) 5 21 16 1002
2022-06-26 02:30 ЮЗ (210°) 5 20 16 1002
2022-06-24 18:00 ЗЮЗ (260°) 6 21 13 1002
2022-06-24 17:30 З (270°) 6 21 14 1002